Volver al catálogo

FENGYUN 1C DEB

ActivoPO
NORAD 31877·DEBRIS·🇨🇳 China

Lanzado May 10, 1999 desde Taiyuan Satellite Launch Center

Loading…

Próximos Pases (próximas 24 horas)

TLE

ActualizadoSource: Space-Track

Época: Sep 14, 2026, 14:27 UTC

1 31877U 99025CKC 26257.60240232  .00012254  00000-0  71327-3 0  9999
2 31877  99.0032  18.3069 0091828  95.7891 265.3811 15.08663766 31913

Sigue FENGYUN 1C DEB en tiempo real con AllMySat

Download on the App Store